STARLINK K (59931 NORAD) Tracking and Keplerian Element Data

This shows tracking and keplerian element data for the satellite.

Feedback or suggestion? Click here.




ElementValue
Catalog59931
NameSTARLINK K
Epoch Orbit228
Epoch Day160.16667824
Epoch Year2024
RAAN22.4477
Inclination43.0026
Eccentricity0.0002077
Argument of Perigee279.4767
Mean Anonmoly156.6027
Mean Motion15.92687533
Decay Rate-0.00976408
L11 59931U 24106K 24160.16667824 -.00976408 29127-3 -27346-2 0 9997
L22 59931 43.0026 22.4477 0002077 279.4767 156.6027 15.92687533 2286



Live tracking and technical data element details for STARLINK K (NORAD 59931). STARLINK K can be tracked NOW for your location showing map with azimuth and elevation plus other details from your city location.







IsCatalogInMostPopularTable: catalog: 59931, numindb: 8
Update: records affected: 1



GetName: 59931 STARLINK K

Hit Count: updated at: Tue, 16 Jul 2024 03:35:08 GMT